Regional Weather Roundup
Issued by NWS Huntsville, AL

Home | Current Version | Previous Version | Text Only | Print | Product List | Glossary On
Versions: 1 2 3 4 5 6 7 8 9 10 11 12 13 14 15 16 17 18 19 20 21 22 23 24 25 26 27 28 29 30 31 32 33 34 35 36 37 38 39 40 41 42 43 44 45 46 47 48 49 50
000
ASUS44 KHUN 241110
RWRHUN

WEATHER ROUNDUP FOR THE TENNESSEE VALLEY
NATIONAL WEATHER SERVICE HUNTSVILLE AL
600 AM CDT SUN MAY 24 2015

ALZ001>004-241200-
NORTHWEST ALABAMA

CITY           SKY/WX    TMP DP  RH WIND       PRES   REMARKS
SHOALS AIRPORT CLEAR     62  54  74 E5        30.24R
SHOALS TVA RES   N/A     63 N/A N/A MISG        N/A
$$

ALZ005>007-016-241200-
NORTH CENTRAL ALABAMA

CITY           SKY/WX    TMP DP  RH WIND       PRES   REMARKS
DECATUR AP     CLEAR     62  54  74 E5        30.25R
HUNTSVILLE AP  PTCLDY    66  53  63 E9        30.26R
HUN NWS/UAH      N/A     67  51  54 SE7         N/A
MERIDIANVILLE  MOCLDY    64  46  52 S3        30.27R
REDSTONE ARSN  PTCLDY    66  53  64 SE8       30.26R
VINEMONT AP    FAIR      64  52  64 SE7       30.28R
$$

ALZ008>010-241200-
NORTHEAST ALABAMA

CITY           SKY/WX    TMP DP  RH WIND       PRES   REMARKS
ALBERTVILLE    PTCLDY    61  59  94 E5        30.28R
FORT PAYNE     CLEAR     63  52  67 CALM      30.30R
SCOTTSBORO HCN   N/A     57 N/A N/A MISG        N/A
VALLEY HEAD      N/A     64 N/A N/A MISG        N/A
$$

TNZ076-096-097-241200-
SOUTHEASTERN MIDDLE TENNESSEE

CITY           SKY/WX    TMP DP  RH WIND       PRES   REMARKS
TULLAHOMA      CLEAR     64  48  55 S8        30.29R
WINCHESTER     CLEAR     66  54  63 SE12      30.29R
$$

...SURROUNDING SITES...

CITY           SKY/WX    TMP DP  RH WIND       PRES   REMARKS
ATLANTA        MOCLDY    63  57  81 E8        30.34R
ANNISTON       MOCLDY    65  58  78 NE6       30.29R
BIRMINGHAM     PTCLDY    69  58  67 E9        30.26R
CHATTANOOGA    PTCLDY    56  51  84 CALM      30.34R
CORINTH        FAIR      63  59  88 CALM      30.18R
DALTON         CLEAR     63  55  77 SE6       30.33S
GADSDEN        PTCLDY   N/A N/A N/A NW3       30.27R
GOLDEN TRNGL   PTCLDY    66  55  68 SE7       30.17R
HALEYVILLE     FAIR      63  55  75 SE5       30.26R
JACKSON TN     MOCLDY    68  57  68 S3        30.17R
MEMPHIS        PTCLDY    71  59  65 SE7       30.13R
NASHVILLE      MOCLDY    60  53  77 SE5       30.25R
OXFORD MS      FAIR      66  57  72 SE7       30.17R
ROME           CLEAR     56  52  86 CALM      30.32R
SAVANNAH       MOCLDY    66  32  28 SE7       30.20R
TUPELO         CLEAR     67  56  67 S5        30.18R
TUSCALOOSA     CLEAR     69  57  65 CALM      30.21R
$$

...GULF COAST WEATHER...

CITY           SKY/WX    TMP DP  RH WIND       PRES   REMARKS
GULFPORT       PTCLDY    80  72  76 SE15      30.10S
PASCAGOULA     CLOUDY    77  73  87 SE7       30.12S
MOBILE         MOCLDY    73  72  96 E5        30.15R FOG
GULF SHORES    PTSUNNY   78  73  87 SE9       30.14S
PENSACOLA      MOCLDY    80  75  84 SE14      30.15R
DESTIN         MOCLDY    75  70  84 E9        30.18R
PANAMA CITY    CLEAR     73  70  90 E8        30.20R
APPALACHICOLA  CLOUDY    81  72  74 E10G20    30.20R
$$



USA.gov is the U.S. government's official web portal to all federal, state and local government web resources and services.